Weather History for Cocoa Beach, FL

Change the Weather History Date:

Thursday, January 17, 2013

  Actual Average Record
Temperature  
Mean Temperature 70 °F -  
Max Temperature 82 °F 68 °F 82 °F (2013)
Min Temperature 56 °F 52 °F 39 °F (1997)
Cooling Degree Days 4    
Growing Degree Days 20 (Base 50)    
Moisture  
Dew Point 60 °F    
Average Humidity 75    
Maximum Humidity 89    
Minimum Humidity 52    
Precipitation  
Precipitation 0.00 in - - ()
Sea Level Pressure  
Sea Level Pressure 30.04 in    
Wind  
Wind Speed 14 mph (WSW)    
Max Wind Speed 26 mph    
Max Gust Speed 34 mph    
Visibility 10 miles    
Events      
Averages and records for this station are not official NWS values.
T = Trace of Precipitation, MM = Missing Value Source: NWS Daily Summary

Daily Weather History Graph

Daily Weather History Graph

Search for Another Location

Airport:

Trip Planner

Search our weather history database for the weather conditions in past years. The results will help you decide how hot, cold, wet, or windy it might be!

Date:

Astronomy

Jan. 17, 2013 Rise Set
Actual Time 7:15 AM EST 5:50 PM EST
Civil Twilight 6:49 AM EST 6:15 PM EST
Nautical Twilight 6:21 AM EST 6:44 PM EST
Astronomical Twilight 5:52 AM EST 7:12 PM EST
Moon 10:57 AM EST (1/17) No Moon Set
Length of Visible Light 11h 25m
Length of Day
10h 35m
Waxing Crescent, 37% of the Moon is Illuminated
Jan 17
Waxing Crescent
Jan 18
First Quarter
Jan 26
Full
Feb 3
Last Quarter
Feb 10
New

Hourly Weather History & Observations

Time (EST) Temp. Heat Index Dew Point Humidity Pressure Visibility Wind Dir Wind Speed Gust Speed Precip Events Conditions
12:55 AM 71.4 °F - 66.9 °F 86% 30.05 in 10.0 mi South 9.2 mph - N/A   Clear
1:55 AM 70.9 °F - 67.1 °F 88% 30.04 in 10.0 mi South 11.5 mph - N/A   Clear
2:55 AM 70.2 °F - 66.7 °F 89% 30.04 in 10.0 mi SSW 11.5 mph - N/A   Clear
3:55 AM 69.6 °F - 66.0 °F 88% 30.04 in 10.0 mi WSW 10.4 mph - N/A   Clear
4:55 AM 68.9 °F - 64.9 °F 87% 30.04 in 10.0 mi SW 6.9 mph - N/A   Clear
5:55 AM 68.5 °F - 64.2 °F 86% 30.04 in 10.0 mi WSW 5.8 mph - N/A   Clear
6:55 AM 67.6 °F - 63.7 °F 87% 30.05 in 10.0 mi West 8.1 mph - N/A   Clear
7:55 AM 67.1 °F - 63.5 °F 88% 30.06 in 10.0 mi SSW 4.6 mph - N/A   Clear
8:55 AM 69.8 °F - 65.1 °F 85% 30.07 in 10.0 mi SSW 8.1 mph - N/A   Clear
9:55 AM 73.9 °F - 67.3 °F 80% 30.07 in 10.0 mi SSW 12.7 mph - N/A   Clear
10:55 AM 77.2 °F - 67.6 °F 72% 30.05 in 10.0 mi SW 15.0 mph - N/A   Clear
11:55 AM 79.7 °F - 66.4 °F 64% 30.02 in 10.0 mi SW 17.3 mph - N/A   Clear
12:55 PM 80.1 °F 81.9 °F 65.1 °F 60% 29.99 in 10.0 mi SW 13.8 mph - N/A   Clear
1:55 PM 82.4 °F 83.5 °F 63.1 °F 52% 29.95 in 10.0 mi SW 17.3 mph - N/A   Clear
2:55 PM 80.4 °F 82.2 °F 65.1 °F 59% 29.93 in 10.0 mi West 20.7 mph - N/A   Scattered Clouds
3:55 PM 73.6 °F - 63.3 °F 70% 29.96 in 10.0 mi West 23.0 mph - N/A   Partly Cloudy
4:22 PM 68.0 °F - 60.8 °F 78% 29.99 in 10.0 mi WNW 24.2 mph 33.4 mph N/A   Mostly Cloudy
4:55 PM 65.3 °F - 58.1 °F 77% 30.01 in 10.0 mi WNW 26.5 mph 34.5 mph N/A   Mostly Cloudy
4:57 PM 66.2 °F - 59.0 °F 78% 30.01 in 10.0 mi WNW 23.0 mph 34.5 mph N/A   Scattered Clouds
5:55 PM 63.7 °F - 54.1 °F 71% 30.04 in 10.0 mi WNW 25.3 mph 32.2 mph N/A   Partly Cloudy
6:55 PM 61.5 °F - 52.3 °F 72% 30.06 in 10.0 mi West 20.7 mph - N/A   Clear
7:55 PM 61.0 °F - 50.4 °F 68% 30.07 in 10.0 mi WNW 19.6 mph 29.9 mph N/A   Scattered Clouds
8:55 PM 60.1 °F - 48.9 °F 67% 30.08 in 10.0 mi WNW 20.7 mph 27.6 mph N/A   Partly Cloudy
9:55 PM 58.8 °F - 47.8 °F 67% 30.09 in 10.0 mi WNW 23.0 mph 27.6 mph N/A   Partly Cloudy
10:55 PM 57.0 °F - 47.1 °F 69% 30.09 in 10.0 mi WNW 21.9 mph - N/A   Clear
11:55 PM 56.5 °F - 46.6 °F 69% 30.09 in 10.0 mi WNW 23.0 mph 27.6 mph N/A   Clear